sat.trackr.live / text

‹ back to catalog

STARLINK-36498

NORAD 67318 · 2026-002P

PAYLOAD ACTIVE UNKNOWN

§ Identity

Operator
Country
US
Launch date
2026-01-04
Launch site
AFETR
Launch vehicle
Mass (kg)
RCS (m²)

Purposes: comms

External: N2YO · Heavens-Above · Gunter

§ Orbital elements

Epoch: 2026-09-19T11:15:52.042176Z

Period
94.27 min
Inclination
43.0036°
Eccentricity
0.0001485
Mean motion
15.27587911 rev/d
Perigee alt
482.0 km
Apogee alt
484.0 km
Semi-major
6,861.2 km
B*
2.3398e-4
RAAN
311.0213°
Arg perigee
265.8256°
Mean anomaly
94.2426°
Rev number
4,077

§ Raw data

STARLINK-364981 67318U 26002P   26262.46935234  .00006184  00000+0  23398-3 0  99952 67318  43.0036 311.0213 0001485 265.8256  94.2426 15.27587911 40777

JSON: /api/v1/satellites/67318 · /tle

For live sub-satellite position, see the globe view (requires WebGL).

§ Visibility from observer

Set your observer location to see the next 7 days of passes ≥ 10°. The values pass through the URL so the page stays shareable.

No JS? Fill the form by hand. The geolocation button needs JavaScript.